Weather History for Cincinnati, OH

Change the Weather History Date:

Friday, February 15, 2013

  Actual Average Record
Temperature  
Mean Temperature 35 °F -  
Max Temperature 42 °F 44 °F 70 °F (1976)
Min Temperature 27 °F 27 °F 1 °F (2007)
Degree Days  
Heating Degree Days 30    
Moisture  
Dew Point 27 °F    
Average Humidity 76    
Maximum Humidity 96    
Minimum Humidity 58    
Precipitation  
Precipitation 0.00 in - - ()
Sea Level Pressure  
Sea Level Pressure 30.11 in    
Wind  
Wind Speed 4 mph (WNW)    
Max Wind Speed 16 mph    
Max Gust Speed 18 mph    
Visibility 10 miles    
Events Snow    
Averages and records for this station are not official NWS values.
T = Trace of Precipitation, MM = Missing Value Source: NWS Daily Summary

Daily Weather History Graph

Daily Weather History Graph

Search for Another Location

Airport:

Trip Planner

Search our weather history database for the weather conditions in past years. The results will help you decide how hot, cold, wet, or windy it might be!

Date:

Astronomy

Feb. 15, 2013 Rise Set
Actual Time 7:28 AM EST 6:15 PM EST
Civil Twilight 7:01 AM EST 6:42 PM EST
Nautical Twilight 6:30 AM EST 7:13 PM EST
Astronomical Twilight 5:59 AM EST 7:44 PM EST
Moon 10:07 AM EST (2/15) No Moon Set
Length of Visible Light 11h 41m
Length of Day
10h 46m
Waxing Crescent, 30% of the Moon is Illuminated
Feb 15
Waxing Crescent
Feb 17
First Quarter
Feb 25
Full
Mar 4
Last Quarter
Mar 11
New

Hourly Weather History & Observations

Time (EST) Temp. Windchill Dew Point Humidity Pressure Visibility Wind Dir Wind Speed Gust Speed Precip Events Conditions
12:53 AM 39.9 °F 36.7 °F 28.0 °F 63% 30.03 in 10.0 mi NW 4.6 mph - N/A   Clear
1:53 AM 32.0 °F - 27.0 °F 82% 30.03 in 10.0 mi Calm Calm - N/A   Clear
2:53 AM 30.0 °F - 28.0 °F 92% 30.03 in 10.0 mi Calm Calm - N/A   Clear
3:53 AM 28.0 °F - 26.1 °F 92% 30.03 in 10.0 mi Calm Calm - N/A   Overcast
4:53 AM 28.0 °F - 27.0 °F 96% 30.05 in 9.0 mi Calm Calm - N/A   Overcast
5:53 AM 28.9 °F - 27.0 °F 92% 30.06 in 9.0 mi Calm Calm - N/A   Overcast
6:53 AM 28.9 °F - 27.0 °F 92% 30.08 in 9.0 mi Calm Calm - N/A   Mostly Cloudy
7:53 AM 30.0 °F - 28.0 °F 92% 30.09 in 8.0 mi Calm Calm - N/A   Mostly Cloudy
8:53 AM 32.0 °F - 30.0 °F 92% 30.11 in 9.0 mi Calm Calm - N/A   Overcast
9:53 AM 37.9 °F 30.5 °F 30.9 °F 76% 30.12 in 10.0 mi SW 11.5 mph - N/A   Overcast
10:53 AM 39.0 °F 32.8 °F 30.9 °F 73% 30.10 in 10.0 mi WSW 9.2 mph - 0.00 in   Overcast
11:53 AM 41.0 °F 35.2 °F 28.9 °F 62% 30.09 in 10.0 mi WSW 9.2 mph - N/A   Mostly Cloudy
12:53 PM 39.9 °F 34.5 °F 30.0 °F 68% 30.09 in 10.0 mi West 8.1 mph - 0.00 in   Overcast
1:53 PM 39.9 °F 31.4 °F 26.1 °F 58% 30.08 in 10.0 mi West 16.1 mph - N/A   Overcast
2:53 PM 42.1 °F 36.6 °F 28.0 °F 58% 30.07 in 10.0 mi SW 9.2 mph - N/A   Mostly Cloudy
3:53 PM 39.9 °F 32.9 °F 26.1 °F 58% 30.09 in 10.0 mi NW 11.5 mph - N/A   Overcast
4:53 PM 37.9 °F 32.1 °F 27.0 °F 65% 30.12 in 10.0 mi NNW 8.1 mph - N/A   Overcast
5:53 PM 35.1 °F 27.9 °F 26.1 °F 70% 30.14 in 7.0 mi NW 9.2 mph 16.1 mph 0.00 in Snow Light Snow
6:53 PM 33.1 °F 24.9 °F 23.0 °F 66% 30.17 in 10.0 mi NW 10.4 mph 18.4 mph 0.00 in   Partly Cloudy
7:53 PM 32.0 °F 26.4 °F 24.1 °F 73% 30.19 in 10.0 mi NW 5.8 mph - N/A   Mostly Cloudy
8:53 PM 30.0 °F 24.1 °F 23.0 °F 75% 30.19 in 10.0 mi NW 5.8 mph - N/A   Mostly Cloudy
9:53 PM 30.0 °F - 23.0 °F 75% 30.19 in 10.0 mi Calm Calm - N/A   Clear
10:53 PM 28.9 °F - 23.0 °F 78% 30.19 in 10.0 mi Calm Calm - N/A   Clear
11:53 PM 27.0 °F 23.0 °F 21.0 °F 78% 30.19 in 10.0 mi NNW 3.5 mph - N/A   Clear